Tracking 29068 objects as of 20-Jul-2024
HD Live streaming from Space Station
objects crossing your sky now

STARLINK-6360

Track STARLINK-6360 now!
10-day predictions
STARLINK-6360 is classified as:


NORAD ID: 57235
Int'l Code: 2023-094T
Perigee: 565.4 km
Apogee: 567.0 km
Inclination: 43.0 °
Period: 95.8 minutes
Semi major axis: 6937 km
RCS: Unknown
Launch date: July 7, 2023
Source: United States (US)
Launch site: AIR FORCE WESTERN TEST RANGE (AFWTR)
Your satellite tracking list
Your tracking list is empty




NASA's NSSDC Master Catalog

Two Line Element Set (TLE):
1 57235U 23094T   24201.85976948  .00000430  00000-0  46886-4 0  9998
2 57235  43.0054  38.5295 0001153 278.7644  81.3068 15.02534220 57192
Source of the keplerian elements: AFSPC